[[{"header":{"parameterUnit":"m.s-1","parameterCategory":1,"la1":30.2992,"la2":30.254,"lo1":-89.0895,"lo2":-89.0443,"dy":0.0025,"dx":0.0025,"nx":19,"ny":19,"refTime":"2026-04-23T21:00:00:Z","depth":0,"parameterNumber":2,"parameterNumberName":"U-component_of_WINDS"},"data":[0,0,0,-5.4861,-5.4862,-5.4926,-5.4926,-5.5023,-5.5024,0,0,0,0,0,0,0,0,0,0,0,-5.4851,-5.4852,-5.486,-5.4862,-5.4926,-5.4926,-5.5023,-5.5024,0,0,0,0,0,0,0,0,0,0,0,-5.4851,-5.4852,-5.4853,-5.4863,-5.4926,-5.4926,-5.5022,-5.4969,0,0,0,0,0,0,0,0,0,0,-5.4904,-5.4905,-5.4852,-5.4853,-5.4863,-5.4926,-5.4926,-5.4966,-5.4972,-5.5001,0,-5.5029,0,-5.5028,-5.5031,-5.5032,0,0,0,-5.4855,-5.49,-5.4909,-5.4854,-5.4864,-5.4926,-5.4895,-5.4969,-5.4976,-5.5009,-5.5031,-5.5034,-5.503,-5.5032,-5.5033,-5.5226,-5.5227,0,0,-5.4851,-5.4868,-5.4904,-5.4914,-5.4906,-5.4893,-5.4897,-5.4973,-5.4997,-5.5031,-5.5036,-5.5032,-5.5033,-5.5034,-5.5224,-5.5226,0,0,0,-5.4846,-5.4866,-5.4872,-5.491,-5.4921,-5.4895,-5.49,-5.4994,-5.4995,-5.5037,-5.5033,-5.5034,-5.5035,-5.5223,-5.5225,-5.5302,0,0,0,-5.4844,-5.4863,-5.4871,-5.4882,-5.492,-5.4958,-5.4919,-5.4989,-5.4997,-5.5032,-5.5034,-5.5036,-5.5222,-5.5224,-5.5297,-5.5335,0,0,0,-5.4844,-5.4862,-5.4875,-5.4882,-5.491,-5.4956,-5.4961,-5.4991,-5.4996,-5.5032,-5.5036,-5.5221,-5.5224,-5.5292,-5.5327,-5.539,0,0,0,-5.4848,-5.4942,-5.4877,-5.498,-5.491,-5.5005,-5.4961,-5.503,-5.5071,-5.5034,-5.5222,-5.5225,-5.5291,-5.5322,-5.5385,-5.5444,-5.547,0,0,-5.4976,-5.4958,-5.5018,-5.4961,-5.5072,-5.4994,-5.5116,-5.5137,-5.5125,-5.5193,-5.5197,-5.5299,-5.5327,-5.5389,-5.5618,-5.5639,0,0,0,-5.5064,-5.5107,-5.5132,-5.5172,-5.5192,-5.5212,-5.5213,-5.5222,-5.5279,-5.5163,-5.5339,-5.5355,-5.5391,-5.5418,-5.5436,-5.5465,-5.5239,-5.5238,-5.5238,-5.5265,-5.5247,-5.5344,-5.5334,-5.5374,-5.5376,-5.5406,-5.5418,-5.5386,-5.5429,-5.5447,-5.5588,-5.5621,-5.5634,-5.5665,-5.5479,-5.5479,-5.5479,-5.548,-5.5448,-5.5505,-5.5465,-5.5544,-5.5525,-5.5591,-5.5598,-5.5574,-5.5633,-5.5572,-5.5603,-5.5535,-5.5658,-5.5684,-5.5485,-5.5484,-5.5484,-5.5483,-5.5483,-5.5575,-5.5599,-5.561,-5.5667,-5.5714,-5.5701,-5.5761,-5.5741,-5.5723,-5.5753,-5.5771,-5.5769,-5.5764,-5.5764,-5.5764,-5.5765,-5.5765,-5.5766,-5.5766,-5.5702,-5.5711,-5.5764,-5.5795,-5.5819,-5.5849,-5.5854,-5.5878,-5.5898,-5.5879,-5.5879,-5.5843,-5.5675,-5.5632,-5.5773,-5.5772,-5.5771,-5.577,-5.577,-5.5889,-5.5845,-5.5926,-5.595,-5.5986,-5.6034,-5.6011,-5.606,-5.6077,-5.6107,-5.6067,-5.5946,-5.5926,-5.5911,-5.5875,-5.6071,-5.6071,-5.6071,-5.6071,-5.5995,-5.5984,-5.6063,-5.6104,-5.6142,-5.613,-5.6222,-5.6229,-5.6229,-5.6238,-5.6208,-5.6159,-5.6146,-5.6133,-5.6114,-5.608,-5.6324,-5.6324,-5.6324,-5.6109,-5.6101,-5.6183,-5.6183,-5.6211,-5.6235,-5.6322,-5.6371,-5.6361,-5.6334,-5.6245,-5.6234,-5.6156,-5.6131,-5.6098,-5.6068,-5.6005,0,0]},{"header":{"parameterUnit":"m.s-1","parameterCategory":1,"la1":30.2992,"la2":30.254,"lo1":-89.0895,"lo2":-89.0443,"dy":0.0025,"dx":0.0025,"nx":19,"ny":19,"refTime":"2026-04-23T21:00:00:Z","depth":0,"parameterNumber":3,"parameterNumberName":"V-component_of_WINDS"},"data":[0,0,0,3.4324,3.4323,3.4316,3.4316,3.4286,3.4286,0,0,0,0,0,0,0,0,0,0,0,3.4315,3.4315,3.4324,3.4323,3.4316,3.4316,3.4286,3.4286,0,0,0,0,0,0,0,0,0,0,0,3.4316,3.4315,3.4314,3.4323,3.4316,3.4316,3.4287,3.4299,0,0,0,0,0,0,0,0,0,0,3.4309,3.4292,3.4315,3.4314,3.4323,3.4316,3.4316,3.43,3.4298,3.4281,0,3.4266,0,3.4276,3.4283,3.4283,0,0,0,3.433,3.4293,3.4301,3.4314,3.4323,3.4316,3.4321,3.4299,3.4297,3.4279,3.4266,3.4265,3.4275,3.4283,3.4282,3.417,3.4169,0,0,3.4331,3.4308,3.4302,3.4299,3.4302,3.4322,3.4321,3.4298,3.4281,3.4266,3.4265,3.4275,3.4282,3.4282,3.4171,3.417,0,0,0,3.4327,3.4308,3.4317,3.43,3.43,3.4321,3.4321,3.4282,3.4287,3.4265,3.4274,3.4282,3.4281,3.4172,3.4171,3.4107,0,0,0,3.4328,3.4306,3.4316,3.4302,3.43,3.4291,3.4305,3.4289,3.4287,3.4274,3.4282,3.4281,3.4173,3.4171,3.4111,3.408,0,0,0,3.4319,3.4305,3.4301,3.4301,3.4298,3.4292,3.4296,3.4289,3.4292,3.4283,3.4281,3.4174,3.4171,3.4114,3.4085,3.4044,0,0,0,3.4303,3.4242,3.4299,3.4235,3.4297,3.4254,3.4297,3.4265,3.4249,3.4282,3.4173,3.4171,3.4115,3.4089,3.4047,3.4004,3.3984,0,0,3.4213,3.4231,3.4195,3.4246,3.4187,3.4257,3.4188,3.4194,3.4213,3.4183,3.418,3.4109,3.4086,3.4044,3.3883,3.3867,0,0,0,3.4159,3.4132,3.4122,3.4108,3.4113,3.4114,3.4134,3.4136,3.4113,3.4194,3.4084,3.4071,3.4047,3.4028,3.4014,3.3995,3.4161,3.4161,3.4161,3.3997,3.4027,3.397,3.3999,3.3985,3.4007,3.3997,3.4004,3.4036,3.401,3.4001,3.39,3.3876,3.3866,3.3846,3.3982,3.3981,3.3981,3.3981,3.3868,3.3835,3.3883,3.3845,3.3877,3.3844,3.3863,3.3888,3.3861,3.3909,3.3889,3.3938,3.3847,3.3831,3.3976,3.3977,3.3978,3.3978,3.3978,3.3764,3.3754,3.376,3.3744,3.3727,3.3759,3.3732,3.3761,3.3788,3.377,3.3763,3.3764,3.3768,3.3765,3.3764,3.3764,3.3764,3.3764,3.3763,3.3654,3.3663,3.3638,3.364,3.3636,3.3633,3.3656,3.3652,3.3654,3.3677,3.3677,3.3712,3.3834,3.3863,3.3758,3.3759,3.376,3.376,3.376,3.3509,3.3547,3.3508,3.3504,3.351,3.3491,3.3531,3.3519,3.352,3.3505,3.3545,3.3631,3.3649,3.366,3.3685,3.354,3.354,3.354,3.354,3.3421,3.3435,3.3402,3.3394,3.3388,3.3421,3.3374,3.3392,3.3415,3.3417,3.3443,3.3478,3.3488,3.3501,3.3515,3.3538,3.3359,3.3359,3.3359,3.3334,3.3349,3.3304,3.3331,3.3338,3.3342,3.33,3.3286,3.3321,3.3352,3.3419,3.3427,3.3484,3.3502,3.3532,3.3554,3.3597,0,0]}]]